Wind_Speed
41 41 41 39 38 39 40 39 38 35 35 33 35 37 37 37 36 34 34 33 33 33 33 34 34 34 34 34 35 35 35 36 36 38 39 39 40 41 43 44 45 45 46 47
41 41 41 40 38 38 38 38 37 36 35 33 35 37 38 37 36 34 33 33 33 33 33 33 33 33 33 33 34 34 35 36 37 38 38 39 40 42 43 44 45 45 46 48
41 40 41 41 38 37 36 36 37 37 33 33 35 35 36 36 35 34 33 33 33 32 32 32 33 33 33 33 34 34 35 36 36 37 38 39 40 42 43 44 44 45 47 49
41 42 43 37 35 35 35 34 35 34 33 33 34 34 35 34 33 33 32 32 32 32 32 32 33 34 34 34 34 34 35 35 36 37 38 39 40 42 43 44 45 47 49 50
42 42 41 38 34 33 34 33 32 33 32 33 33 34 33 32 32 32 32 32 32 32 32 33 33 33 34 34 34 34 34 35 36 37 38 40 41 43 44 45 46 48 49 50
42 41 41 36 33 32 33 33 29 31 31 31 32 32 30 30 31 31 31 31 31 31 32 32 33 33 33 33 33 33 34 35 37 38 39 41 42 44 45 46 47 49 50 52
42 41 39 34 32 32 33 29 29 29 29 29 30 30 29 30 30 30 30 30 31 31 32 32 32 32 32 32 33 34 35 36 38 39 40 41 43 44 45 47 48 50 51 53
42 41 37 32 31 30 30 30 29 29 28 28 29 29 29 30 30 30 30 30 30 31 31 31 31 32 32 33 34 35 36 37 38 40 41 42 43 45 46 48 49 51 52 54
39 36 33 33 31 30 30 30 28 27 27 28 28 29 29 30 30 29 29 30 30 30 30 31 32 32 33 34 34 35 36 38 39 41 42 43 44 46 47 49 51 52 54 55
39 36 35 34 32 30 29 30 29 28 27 28 28 29 29 29 29 29 30 30 30 30 30 31 32 33 33 34 35 36 38 39 40 42 43 44 46 47 49 51 52 54 55 56
38 35 35 34 33 32 31 30 29 29 28 28 28 29 29 29 29 30 30 30 30 31 31 32 33 34 35 36 37 38 39 40 41 43 44 45 47 49 50 52 53 55 56 58
36 34 35 33 32 33 32 31 30 30 30 30 29 29 30 30 30 30 30 30 31 31 32 33 33 35 36 37 38 40 40 41 43 44 45 47 48 50 52 53 55 57 59 61
36 36 36 34 33 33 33 32 32 32 31 31 31 31 30 30 30 31 31 31 32 33 33 34 35 36 37 38 39 40 41 42 44 45 46 48 50 51 52 54 56 58 60 62
36 36 36 35 34 34 33 33 32 32 32 32 32 31 31 31 31 31 32 32 33 34 35 36 36 37 38 39 40 41 43 44 45 47 48 50 51 52 54 55 57 59 61 64
36 36 36 35 34 34 33 33 32 31 31 32 32 32 32 32 32 32 33 33 34 35 36 37 38 39 40 41 42 43 44 46 47 48 50 51 52 53 55 57 59 60 62 64
35 35 34 34 33 33 32 32 32 31 31 31 32 33 33 34 34 34 34 35 35 36 37 38 39 40 41 42 43 44 46 47 48 50 51 52 53 55 57 59 61 62 64 66
35 34 33 32 32 32 32 32 32 32 32 32 32 33 34 34 34 34 35 36 37 37 38 39 40 41 42 43 45 46 47 48 50 51 52 53 56 57 59 61 63 65 66 67
34 33 32 32 32 32 32 33 32 32 33 33 33 33 34 34 35 36 36 37 38 38 39 40 41 42 43 45 46 47 48 49 51 52 53 55 57 59 62 64 66 67 68 68
33 33 32 32 31 32 32 33 32 32 33 33 33 34 34 35 35 36 37 38 38 39 40 41 42 43 45 46 47 48 49 51 52 53 55 57 59 62 64 66 67 68 67 66
32 32 31 31 31 31 32 32 32 32 33 33 34 34 34 35 36 36 37 38 39 40 41 42 43 45 46 47 48 50 51 53 54 55 58 60 62 64 66 67 67 66 65 63
31 31 31 31 32 32 32 33 33 32 32 33 33 34 34 35 36 37 38 39 40 41 42 44 45 46 48 49 50 51 53 55 56 58 60 62 64 65 66 66 65 64 62 61
30 31 31 31 32 32 32 33 33 33 33 34 34 35 36 36 37 38 39 40 41 42 44 45 46 48 49 50 52 54 55 57 58 60 62 64 65 66 65 65 64 62 61 59
31 31 31 31 32 32 32 33 33 34 34 35 36 36 37 38 38 39 40 41 42 43 45 46 48 49 50 52 54 56 57 59 60 62 64 65 65 65 65 63 61 59 58 55
31 31 31 31 31 32 33 33 34 34 35 36 36 37 38 38 39 40 41 42 43 44 46 47 49 50 52 54 56 58 59 60 62 63 64 64 64 63 62 60 58 56 53 52
29 29 30 30 30 31 32 33 33 34 35 35 36 37 38 39 40 41 42 43 44 46 47 48 50 52 54 56 58 59 59 60 61 62 62 62 62 60 58 57 54 52 51 50
29 29 30 30 31 31 32 33 34 35 35 36 37 38 39 40 41 42 43 44 46 47 49 51 52 54 56 57 58 58 59 60 60 61 61 60 59 58 55 53 51 50 49 48
30 30 31 31 31 32 33 34 35 35 36 37 38 39 40 41 42 43 44 46 47 49 51 53 54 56 56 56 57 58 59 60 60 60 59 58 57 54 52 50 49 48 47 47
Wind_Direction
235 240 244 244 244 247 250 254 257 260 262 265 268 271 275 278 281 282 283 284 285 286 286 286 286 286 286 285 285 285 284 284 284 285 286 287 287 288 289 290 291 292 293 295
233 237 242 245 244 246 250 253 256 259 261 264 267 270 274 278 281 283 283 284 285 286 286 287 287 287 287 286 286 285 285 285 286 286 287 287 288 288 290 291 293 293 295 296
232 235 239 243 245 247 251 253 256 259 263 264 266 269 273 277 280 281 283 285 286 286 287 287 287 287 287 287 286 287 287 287 288 288 288 288 289 290 291 293 293 295 296 297
233 235 239 243 247 250 252 253 256 260 262 264 267 269 272 275 278 280 282 284 285 286 287 287 287 287 287 288 288 288 288 288 288 288 289 289 290 291 293 294 295 296 297 298
233 237 241 243 246 251 254 254 256 260 262 264 266 268 271 274 277 279 282 284 285 286 287 287 287 287 288 288 289 289 289 289 289 289 289 290 291 293 294 295 296 297 298 299
232 237 242 244 248 250 253 254 256 260 263 265 266 269 272 275 277 279 281 283 284 286 287 288 288 288 288 289 289 290 290 289 290 290 290 291 292 294 295 296 297 298 299 300
233 237 241 244 247 250 253 258 259 260 262 264 267 269 270 273 276 279 281 282 284 286 287 288 289 289 289 290 291 291 290 291 291 291 292 293 294 295 296 297 298 299 300 301
234 238 241 246 250 252 255 257 259 260 261 263 265 267 270 273 276 279 281 283 285 286 287 288 289 290 290 291 291 291 291 291 292 292 294 295 296 297 298 299 299 300 301 302
238 241 245 247 250 252 254 256 257 259 261 262 265 268 271 274 276 278 280 282 284 286 287 288 289 290 290 291 292 292 293 293 294 295 296 297 297 298 299 300 301 302 303 304
235 238 242 246 249 252 254 255 257 259 261 263 266 269 271 274 275 277 279 281 284 286 287 288 289 290 290 291 292 293 294 295 296 297 297 298 299 299 301 302 303 303 304 305
237 238 242 245 249 252 253 254 257 260 262 264 268 271 273 274 275 277 279 282 284 286 287 289 290 290 291 292 294 295 296 297 297 298 299 300 300 301 302 303 304 304 305 305
237 239 243 245 249 250 251 254 258 260 263 266 269 272 273 274 275 277 279 281 284 286 288 289 290 291 292 294 295 296 297 298 299 299 300 301 301 302 303 304 305 306 306 307
236 238 241 244 247 248 250 254 257 260 264 267 269 271 273 274 276 277 279 281 284 286 287 289 291 292 293 294 296 297 298 299 299 300 301 302 302 303 304 305 306 307 307 308
237 239 242 244 245 247 251 254 258 262 265 268 270 271 273 275 276 278 280 282 284 286 288 289 291 293 294 295 296 297 298 300 300 301 302 303 303 304 305 306 307 308 308 309
237 240 241 242 243 246 250 254 258 262 266 268 270 271 273 274 276 279 280 282 284 286 288 290 291 293 295 296 297 298 299 300 301 302 303 303 304 305 307 308 309 309 310 310
236 239 240 242 244 247 251 255 258 261 265 268 270 270 271 273 276 278 280 282 284 286 288 290 292 294 295 297 298 299 300 301 302 303 303 304 305 307 308 309 309 310 311 311
237 240 242 243 245 249 253 256 258 262 265 267 269 270 271 273 275 278 280 282 284 286 288 290 292 294 296 297 299 300 301 302 303 304 304 305 306 307 308 309 310 311 312 312
237 240 242 244 247 251 254 256 259 262 265 267 268 269 271 274 276 278 280 282 284 286 288 291 293 295 297 298 300 301 302 303 304 304 305 306 307 308 309 310 311 312 312 313
238 241 244 246 250 253 255 257 261 264 265 267 268 269 271 274 276 279 280 283 285 287 290 292 294 295 297 299 300 301 302 304 304 305 306 307 308 309 310 312 312 313 313 313
240 242 244 247 251 254 257 260 262 264 265 267 268 270 272 275 277 280 282 284 286 288 290 292 294 296 298 300 301 302 303 304 305 306 307 308 309 310 311 312 313 313 313 314
240 243 246 249 252 255 258 260 261 263 265 267 269 271 274 276 279 281 283 285 287 289 291 293 295 297 299 300 301 303 304 305 306 307 308 309 310 311 312 312 312 312 313 313
242 245 248 251 253 256 258 260 261 263 265 267 270 272 275 277 279 281 283 286 288 290 292 294 296 298 299 301 303 304 306 306 307 308 309 310 310 311 312 312 312 312 313 313
243 246 249 252 254 257 258 260 262 264 266 268 271 273 276 277 279 282 284 287 289 291 293 295 297 299 300 302 304 305 306 307 308 308 309 310 311 311 312 312 312 312 313 314
244 247 250 253 255 257 259 261 264 266 268 270 272 274 276 278 281 284 286 288 290 292 294 296 298 300 302 303 305 306 306 307 308 309 310 311 311 312 312 313 313 313 313 314
246 249 251 254 257 259 261 264 266 268 270 272 274 275 277 280 283 285 287 289 291 293 295 297 299 301 302 304 305 306 307 308 309 310 311 311 312 313 313 313 313 313 313 314
249 252 254 256 258 261 263 265 267 270 272 273 275 277 279 282 284 286 288 291 293 295 297 298 300 301 303 305 306 307 308 309 310 311 312 313 313 313 313 313 313 313 313 314
250 253 255 257 260 263 265 267 268 270 273 275 277 279 281 284 286 288 290 292 294 296 297 299 301 303 304 305 306 307 309 310 311 312 312 313 314 314 313 313 313 313 314 314
Height
5667 5671 5675 5680 5685 5688 5690 5694 5697 5702 5704 5706 5706 5705 5706 5706 5707 5707 5707 5706 5705 5705 5704 5703 5701 5700 5698 5697 5695 5694 5692 5691 5689 5687 5685 5683 5681 5678 5675 5672 5669 5666 5662 5658
5658 5663 5666 5670 5675 5679 5683 5687 5689 5692 5695 5698 5698 5697 5698 5698 5698 5698 5698 5697 5697 5696 5695 5694 5692 5691 5689 5688 5686 5685 5683 5682 5680 5678 5676 5673 5671 5668 5665 5662 5659 5655 5651 5647
5650 5654 5656 5661 5668 5672 5676 5679 5682 5684 5690 5689 5689 5689 5690 5690 5690 5690 5689 5689 5688 5687 5686 5685 5683 5682 5680 5679 5677 5676 5674 5672 5670 5668 5666 5664 5661 5658 5655 5651 5648 5644 5640 5635
5641 5645 5648 5659 5662 5665 5668 5671 5674 5676 5679 5679 5680 5681 5681 5682 5682 5681 5681 5680 5679 5678 5677 5676 5674 5673 5671 5670 5668 5667 5665 5663 5661 5659 5656 5654 5651 5648 5644 5641 5637 5633 5628 5623
5632 5636 5642 5649 5654 5658 5660 5663 5666 5668 5670 5670 5671 5672 5673 5673 5673 5673 5672 5672 5671 5670 5668 5667 5666 5664 5663 5661 5659 5657 5655 5653 5651 5649 5646 5644 5641 5637 5634 5630 5626 5621 5616 5611
5624 5629 5634 5644 5648 5650 5652 5654 5659 5659 5661 5662 5662 5664 5666 5665 5665 5664 5664 5663 5662 5661 5660 5658 5657 5655 5654 5652 5650 5648 5646 5644 5642 5639 5636 5634 5630 5627 5623 5618 5614 5609 5604 5598
5616 5621 5627 5636 5639 5641 5645 5650 5650 5651 5652 5653 5654 5656 5657 5656 5656 5656 5655 5654 5653 5652 5651 5650 5648 5647 5645 5643 5641 5639 5637 5635 5632 5629 5626 5623 5619 5615 5611 5607 5602 5597 5592 5586
5609 5614 5624 5629 5632 5635 5638 5639 5641 5642 5644 5646 5646 5647 5648 5648 5648 5647 5647 5646 5645 5644 5643 5641 5639 5638 5636 5635 5632 5630 5628 5625 5622 5619 5616 5612 5608 5604 5600 5595 5590 5584 5578 5572
5605 5613 5618 5621 5624 5626 5629 5631 5633 5634 5636 5638 5639 5639 5640 5640 5640 5639 5638 5638 5636 5635 5634 5632 5631 5629 5627 5625 5623 5621 5618 5615 5612 5609 5605 5601 5597 5593 5588 5582 5577 5571 5565 5559
5597 5603 5608 5612 5615 5618 5621 5623 5625 5627 5629 5630 5631 5631 5632 5632 5631 5631 5630 5629 5628 5627 5625 5624 5622 5620 5618 5616 5613 5611 5608 5605 5602 5598 5594 5590 5585 5580 5575 5570 5564 5557 5551 5544
5589 5596 5600 5604 5607 5611 5613 5615 5617 5619 5621 5622 5622 5623 5623 5623 5623 5622 5621 5620 5619 5618 5616 5615 5613 5611 5609 5606 5604 5601 5598 5595 5591 5587 5583 5578 5573 5568 5562 5557 5550 5543 5537 5529
5584 5589 5592 5596 5599 5602 5604 5607 5609 5611 5612 5613 5614 5615 5615 5615 5614 5613 5613 5612 5610 5609 5607 5606 5604 5601 5599 5596 5594 5591 5587 5584 5580 5576 5571 5566 5561 5556 5549 5543 5536 5529 5521 5514
5574 5578 5582 5587 5590 5593 5596 5599 5601 5602 5604 5605 5605 5606 5606 5606 5605 5605 5604 5603 5601 5600 5598 5596 5594 5592 5589 5586 5583 5580 5576 5573 5568 5564 5559 5554 5549 5543 5537 5531 5522 5514 5506 5498
5565 5569 5574 5578 5582 5585 5588 5590 5592 5593 5595 5596 5597 5597 5597 5597 5596 5596 5595 5594 5592 5591 5589 5587 5584 5582 5579 5576 5573 5569 5565 5561 5557 5552 5547 5541 5536 5529 5523 5517 5510 5501 5492 5483
5557 5561 5566 5569 5573 5576 5579 5581 5583 5585 5586 5587 5588 5588 5588 5588 5587 5587 5586 5584 5583 5581 5579 5577 5574 5572 5568 5565 5562 5558 5554 5549 5544 5539 5534 5528 5522 5516 5509 5502 5495 5487 5478 5468
5549 5553 5557 5561 5564 5568 5570 5573 5575 5576 5577 5578 5578 5579 5579 5578 5578 5577 5576 5575 5573 5571 5569 5566 5564 5561 5558 5554 5550 5546 5542 5537 5532 5527 5521 5515 5509 5502 5495 5488 5480 5471 5462 5453
5541 5545 5549 5553 5556 5559 5562 5564 5565 5567 5568 5569 5569 5569 5569 5569 5568 5567 5566 5564 5563 5561 5558 5556 5553 5550 5546 5543 5539 5534 5530 5525 5519 5514 5508 5502 5495 5488 5480 5473 5464 5455 5446 5436
5533 5537 5541 5544 5547 5550 5552 5554 5556 5557 5558 5559 5559 5559 5559 5559 5558 5557 5556 5554 5552 5550 5548 5545 5542 5539 5535 5531 5527 5522 5517 5512 5506 5500 5494 5488 5481 5473 5465 5457 5448 5439 5429 5419
5526 5530 5533 5536 5539 5541 5543 5545 5547 5548 5549 5549 5549 5549 5549 5548 5548 5547 5545 5544 5542 5540 5537 5534 5531 5527 5523 5519 5514 5509 5504 5499 5493 5487 5480 5473 5466 5458 5449 5440 5431 5422 5412 5403
5518 5521 5524 5527 5530 5532 5534 5536 5537 5538 5539 5539 5540 5539 5539 5538 5537 5536 5534 5533 5531 5528 5526 5523 5519 5515 5511 5506 5502 5497 5491 5485 5479 5472 5466 5458 5450 5442 5433 5424 5415 5405 5396 5387
5510 5513 5516 5519 5521 5523 5525 5526 5528 5529 5529 5530 5530 5529 5529 5528 5527 5525 5524 5522 5520 5517 5514 5511 5507 5503 5499 5494 5489 5483 5477 5471 5464 5458 5450 5442 5434 5426 5417 5407 5398 5389 5380 5372
5503 5505 5508 5511 5513 5514 5516 5517 5518 5519 5519 5519 5519 5519 5518 5517 5516 5514 5513 5511 5508 5505 5502 5498 5495 5490 5486 5481 5475 5469 5463 5456 5449 5442 5434 5426 5418 5409 5400 5391 5382 5373 5365 5357
5495 5497 5500 5502 5504 5505 5507 5508 5509 5509 5509 5509 5509 5508 5508 5507 5505 5504 5502 5499 5496 5493 5490 5486 5482 5477 5472 5467 5461 5455 5448 5441 5434 5426 5418 5410 5401 5392 5384 5375 5366 5358 5350 5342
5487 5489 5491 5493 5495 5496 5497 5498 5499 5499 5499 5499 5498 5498 5497 5496 5494 5492 5490 5487 5484 5481 5477 5473 5468 5463 5458 5453 5447 5440 5433 5425 5418 5410 5401 5393 5384 5376 5367 5359 5351 5344 5336 5329
5478 5480 5482 5484 5485 5487 5488 5488 5489 5489 5489 5488 5488 5487 5486 5484 5483 5480 5478 5475 5472 5468 5464 5459 5455 5449 5444 5438 5431 5424 5417 5409 5402 5393 5385 5377 5368 5360 5352 5344 5337 5330 5323 5316
5469 5471 5473 5475 5476 5477 5478 5478 5479 5479 5479 5478 5477 5476 5475 5473 5471 5468 5466 5463 5459 5455 5451 5446 5441 5435 5429 5423 5416 5409 5401 5394 5386 5378 5369 5361 5353 5345 5337 5330 5324 5317 5310 5304
5460 5462 5464 5465 5467 5467 5468 5468 5469 5468 5468 5467 5466 5465 5463 5461 5459 5456 5453 5450 5446 5442 5437 5432 5426 5420 5414 5408 5401 5394 5386 5379 5371 5362 5354 5346 5338 5331 5324 5317 5311 5304 5298 5292